El Centro, CA

4:00 PM PST on January 16, 2018 (GMT -0800)
El Centro Naval Air Facility

Weather History for KNJK - September, 2013

Change the Weather History Date:

Saturday, September 21, 2013

  Actual Average Record
Temperature  
Mean Temperature 84 °F -  
Max Temperature 102 °F 98 °F 108 °F (2012)
Min Temperature 69 °F 72 °F 60 °F (2007)
Cooling Degree Days 20    
Growing Degree Days 34 (Base 50)    
Moisture  
Dew Point 51 °F    
Average Humidity 37    
Maximum Humidity 68    
Minimum Humidity 8    
Precipitation  
Precipitation 0.00 in - - ()
Sea Level Pressure  
Sea Level Pressure 29.72 in    
Wind  
Wind Speed 8 mph (West)    
Max Wind Speed 24 mph    
Max Gust Speed 32 mph    
Visibility 10 miles    
Events      
Averages and records for this station are not official NWS values.
T = Trace of Precipitation, MM = Missing Value Source: NWS Daily Summary

Daily Weather History Graph

Daily Weather History Graph

Search for Another Location

Airport or City:

Trip Planner

Search our weather history database for the weather conditions in past years. The results will help you decide how hot, cold, wet, or windy it might be!

Date:

Astronomy

Sep. 21, 2013 Rise Set
Actual Time 6:30 AM PDT 6:40 PM PDT
Civil Twilight 6:05 AM PDT 7:04 PM PDT
Nautical Twilight 5:37 AM PDT 7:33 PM PDT
Astronomical Twilight 5:07 AM PDT 8:02 PM PDT
Moon 8:04 PM PDT (9/21) 8:43 AM PDT (9/21)
Length of Visible Light 12h 59m
Length of Day
12h 09m
Waning Gibbous, 94% of the Moon is Illuminated
Sep 21
Waning Gibbous
Sep 26
Last Quarter
Oct 4
New
Oct 11
First Quarter
Oct 18
Full

Hourly Weather History & Observations

Time (PDT) Temp. Heat Index Dew Point Humidity Pressure Visibility Wind Dir Wind Speed Gust Speed Precip Events Conditions
12:56 AM 78.1 °F - 60.1 °F 54% 29.75 in 10.0 mi NE 4.6 mph - N/A   Clear
1:56 AM 75.9 °F - 61.0 °F 60% 29.75 in 10.0 mi North 4.6 mph - N/A   Clear
2:56 AM 75.9 °F - 62.1 °F 62% 29.74 in 10.0 mi NE 6.9 mph - N/A   Clear
3:56 AM 75.0 °F - 48.9 °F 40% 29.73 in 10.0 mi WNW 4.6 mph - N/A   Clear
4:56 AM 71.1 °F - 54.0 °F 55% 29.74 in 10.0 mi SSW 5.8 mph - N/A   Clear
5:56 AM 69.1 °F - 57.9 °F 68% 29.75 in 10.0 mi SE 5.8 mph - N/A   Clear
6:56 AM 69.1 °F - 55.9 °F 63% 29.76 in 10.0 mi West 3.5 mph - N/A   Clear
7:56 AM 73.9 °F - 55.0 °F 52% 29.78 in 10.0 mi WNW 3.5 mph - N/A   Clear
8:56 AM 81.0 °F 81.0 °F 57.0 °F 44% 29.79 in 10.0 mi Variable 3.5 mph - N/A   Clear
9:56 AM 87.1 °F 86.1 °F 57.9 °F 37% 29.79 in 10.0 mi North 6.9 mph - N/A   Clear
10:56 AM 90.0 °F 89.1 °F 59.0 °F 35% 29.78 in 10.0 mi North 4.6 mph - N/A   Clear
11:56 AM 93.0 °F 90.8 °F 54.0 °F 27% 29.76 in 10.0 mi NW 5.8 mph - N/A   Clear
12:56 PM 95.0 °F 93.0 °F 55.0 °F 26% 29.72 in 10.0 mi Variable 6.9 mph - N/A   Clear
1:56 PM 96.1 °F - 48.9 °F 20% 29.69 in 10.0 mi South 5.8 mph - N/A   Clear
2:56 PM 98.1 °F - 43.0 °F 15% 29.67 in 10.0 mi Variable 5.8 mph - N/A   Clear
3:56 PM 100.0 °F - 28.9 °F 8% 29.65 in 10.0 mi SW 17.3 mph 26.5 mph N/A   Clear
4:56 PM 97.0 °F - 39.0 °F 13% 29.65 in 10.0 mi SW 23.0 mph 29.9 mph N/A   Clear
5:56 PM 91.9 °F - 44.1 °F 19% 29.65 in 10.0 mi WSW 24.2 mph 28.8 mph N/A   Clear
6:56 PM 86.0 °F - 45.0 °F 24% 29.65 in 10.0 mi WSW 24.2 mph 32.2 mph N/A   Clear
7:56 PM 82.9 °F - 46.0 °F 27% 29.67 in 10.0 mi WSW 24.2 mph 31.1 mph N/A   Clear
8:56 PM 80.1 °F - 46.0 °F 30% 29.69 in 10.0 mi West 12.7 mph - N/A   Clear
9:56 PM 78.1 °F - 46.9 °F 33% 29.71 in 10.0 mi WSW 17.3 mph - N/A   Clear
10:56 PM 75.9 °F - 52.0 °F 43% 29.71 in 10.0 mi WSW 23.0 mph - N/A   Clear
11:56 PM 75.0 °F - 50.0 °F 41% 29.71 in 10.0 mi WSW 21.9 mph - N/A   Clear